LPE2120 SPJC-SPZO

Flight info

Callsign LPE2120
Flight time 0h 54m
Altitude 37000
Route JCL DCT LPA DCT AND DCT ZCO
Aircraft A319/M-SDE3FGHIRWY/LB1

Departure

Time 2026-04-28 18:29
Airport Jorge Chávez International Airport (SPJC)

Arrival

Time 2026-04-28 19:24
Airport Alejandro Velasco Astete International Airport (SPZO)
Time Latitude Longitude Altitude Speed Heading
2026-04-28 17:59 -12.02803 -77.11455 85 ft 0 kts 244°
2026-04-28 18:20 -12.02795 -77.11438 86 ft 4 kts 244°
2026-04-28 18:20 -12.02786 -77.11414 86 ft 4 kts 268°
2026-04-28 18:20 -12.02792 -77.11392 85 ft 4 kts 326°
2026-04-28 18:21 -12.02798 -77.11388 86 ft 0 kts 334°
2026-04-28 18:22 -12.02787 -77.11394 86 ft 5 kts 334°
2026-04-28 18:22 -12.02738 -77.11417 82 ft 10 kts 334°
2026-04-28 18:23 -12.02665 -77.11435 82 ft 11 kts 24°
2026-04-28 18:23 -12.02599 -77.11406 83 ft 13 kts 343°
2026-04-28 18:23 -12.02501 -77.11453 84 ft 19 kts 332°
2026-04-28 18:23 -12.02363 -77.11526 73 ft 23 kts 333°
2026-04-28 18:24 -12.02206 -77.11608 75 ft 27 kts 334°
2026-04-28 18:24 -12.02106 -77.11651 72 ft 19 kts 338°
2026-04-28 18:24 -12.01951 -77.11724 67 ft 13 kts 334°
2026-04-28 18:24 -12.01850 -77.11774 61 ft 18 kts 334°
2026-04-28 18:25 -12.01762 -77.11816 64 ft 12 kts 334°
2026-04-28 18:25 -12.01666 -77.11865 64 ft 19 kts 333°
2026-04-28 18:25 -12.01533 -77.11935 58 ft 24 kts 333°
2026-04-28 18:26 -12.01272 -77.12077 60 ft 21 kts 311°
2026-04-28 18:26 -12.01162 -77.12185 51 ft 17 kts 334°
2026-04-28 18:26 -12.01029 -77.12251 52 ft 25 kts 334°
2026-04-28 18:26 -12.00904 -77.12309 51 ft 13 kts 343°
2026-04-28 18:27 -12.00830 -77.12248 52 ft 17 kts 63°
2026-04-28 18:27 -12.00795 -77.12138 52 ft 16 kts 107°
2026-04-28 18:27 -12.00852 -77.12091 52 ft 0 kts 153°
2026-04-28 18:28 -12.00987 -77.12023 55 ft 55 kts 154°
2026-04-28 18:28 -12.01534 -77.11758 62 ft 117 kts 154°
2026-04-28 18:29 -12.02424 -77.11315 88 ft 166 kts 154°
2026-04-28 18:29 -12.03526 -77.10779 520 ft 174 kts 157°
2026-04-28 18:29 -12.04609 -77.10238 1199 ft 174 kts 157°
2026-04-28 18:29 -12.05744 -77.09680 1648 ft 191 kts 156°
2026-04-28 18:30 -12.07012 -77.09058 1931 ft 214 kts 156°
2026-04-28 18:30 -12.07890 -77.08529 2118 ft 232 kts 141°
2026-04-28 18:30 -12.09476 -77.06809 2810 ft 260 kts 133°
2026-04-28 18:30 -12.10708 -77.05422 3741 ft 266 kts 132°
2026-04-28 18:31 -12.11963 -77.04015 4683 ft 270 kts 132°
2026-04-28 18:31 -12.13242 -77.02584 5538 ft 275 kts 132°
2026-04-28 18:31 -12.14546 -77.01126 6386 ft 280 kts 132°
2026-04-28 18:31 -12.15724 -76.99560 7148 ft 284 kts 120°
2026-04-28 18:32 -12.16579 -76.97733 7948 ft 287 kts 114°
2026-04-28 18:32 -12.17394 -76.95865 8765 ft 289 kts 114°
2026-04-28 18:32 -12.18219 -76.93985 9567 ft 291 kts 114°
2026-04-28 18:32 -12.19052 -76.92085 10283 ft 296 kts 114°
2026-04-28 18:33 -12.19927 -76.90090 10484 ft 319 kts 114°
2026-04-28 18:33 -12.20867 -76.87948 10652 ft 340 kts 114°
2026-04-28 18:33 -12.21847 -76.85720 11140 ft 347 kts 114°
2026-04-28 18:33 -12.22845 -76.83449 11694 ft 352 kts 114°
2026-04-28 18:34 -12.23854 -76.81154 12274 ft 355 kts 114°
2026-04-28 18:34 -12.24870 -76.78841 12914 ft 358 kts 114°
2026-04-28 18:34 -12.25892 -76.76508 13520 ft 360 kts 114°
2026-04-28 18:34 -12.26921 -76.74161 14101 ft 362 kts 114°
2026-04-28 18:35 -12.27955 -76.71802 14605 ft 366 kts 114°
2026-04-28 18:35 -12.29000 -76.69420 15105 ft 369 kts 114°
2026-04-28 18:35 -12.30054 -76.67017 15602 ft 371 kts 114°
2026-04-28 18:35 -12.31114 -76.64597 16147 ft 374 kts 114°
2026-04-28 18:36 -12.32181 -76.62159 16658 ft 377 kts 114°
2026-04-28 18:36 -12.33258 -76.59700 17151 ft 381 kts 114°
2026-04-28 18:36 -12.34346 -76.57215 17639 ft 384 kts 114°
2026-04-28 18:36 -12.35439 -76.54711 18171 ft 386 kts 113°
2026-04-28 18:37 -12.36537 -76.52191 18636 ft 390 kts 113°
2026-04-28 18:37 -12.37646 -76.49650 19108 ft 393 kts 113°
2026-04-28 18:37 -12.38771 -76.47078 19514 ft 397 kts 113°
2026-04-28 18:37 -12.39904 -76.44488 19948 ft 401 kts 113°
2026-04-28 18:38 -12.41045 -76.41873 20375 ft 404 kts 113°
2026-04-28 18:38 -12.42194 -76.39240 20826 ft 407 kts 114°
2026-04-28 18:38 -12.43355 -76.36583 21215 ft 410 kts 114°
2026-04-28 18:38 -12.44524 -76.33908 21681 ft 414 kts 114°
2026-04-28 18:39 -12.45701 -76.31214 22083 ft 417 kts 114°
2026-04-28 18:39 -12.46889 -76.28499 22477 ft 419 kts 114°
2026-04-28 18:39 -12.48081 -76.25764 22851 ft 422 kts 114°
2026-04-28 18:39 -12.49280 -76.23011 23219 ft 425 kts 114°
2026-04-28 18:40 -12.50488 -76.20235 23644 ft 428 kts 114°
2026-04-28 18:40 -12.51702 -76.17443 23987 ft 431 kts 114°
2026-04-28 18:40 -12.52923 -76.14633 24277 ft 434 kts 114°
2026-04-28 18:40 -12.54159 -76.11799 24543 ft 438 kts 114°
2026-04-28 18:41 -12.55402 -76.08949 24814 ft 440 kts 114°
2026-04-28 18:41 -12.56651 -76.06080 25164 ft 442 kts 114°
2026-04-28 18:41 -12.57906 -76.03199 25457 ft 445 kts 114°
2026-04-28 18:41 -12.59166 -76.00300 25776 ft 447 kts 114°
2026-04-28 18:42 -12.60430 -75.97388 26089 ft 448 kts 114°
2026-04-28 18:42 -12.61701 -75.94462 26388 ft 451 kts 114°
2026-04-28 18:42 -12.62976 -75.91519 26742 ft 453 kts 114°
2026-04-28 18:42 -12.64237 -75.88602 27049 ft 455 kts 114°
2026-04-28 18:43 -12.65536 -75.85596 27357 ft 457 kts 114°
2026-04-28 18:43 -12.66828 -75.82613 27656 ft 459 kts 114°
2026-04-28 18:43 -12.68129 -75.79622 27908 ft 461 kts 114°
2026-04-28 18:43 -12.69438 -75.76615 28242 ft 464 kts 114°
2026-04-28 18:44 -12.70755 -75.73584 28500 ft 467 kts 114°
2026-04-28 18:44 -12.73405 -75.67474 29064 ft 471 kts 114°
2026-04-28 18:44 -12.74734 -75.64402 29383 ft 473 kts 114°
2026-04-28 18:45 -12.76050 -75.61355 29697 ft 475 kts 114°
2026-04-28 18:45 -12.77390 -75.58257 29978 ft 477 kts 114°
2026-04-28 18:45 -12.78738 -75.55141 30260 ft 479 kts 114°
2026-04-28 18:45 -12.80089 -75.52017 30500 ft 481 kts 114°
2026-04-28 18:46 -12.81441 -75.48881 30724 ft 483 kts 114°
2026-04-28 18:46 -12.82801 -75.45726 30938 ft 485 kts 113°
2026-04-28 18:46 -12.84166 -75.42560 31157 ft 487 kts 113°
2026-04-28 18:46 -12.85538 -75.39379 31393 ft 488 kts 113°
2026-04-28 18:47 -12.86908 -75.36208 31719 ft 487 kts 113°
2026-04-28 18:47 -12.88277 -75.33034 32070 ft 486 kts 113°
2026-04-28 18:47 -12.89642 -75.29866 32387 ft 486 kts 113°
2026-04-28 18:47 -12.91010 -75.26692 32713 ft 486 kts 113°
2026-04-28 18:48 -12.92378 -75.23522 33023 ft 486 kts 112°
2026-04-28 18:48 -12.93746 -75.20352 33357 ft 486 kts 112°
2026-04-28 18:48 -12.95111 -75.17186 33693 ft 486 kts 112°
2026-04-28 18:48 -12.96475 -75.14015 34038 ft 486 kts 112°
2026-04-28 18:49 -12.97836 -75.10839 34378 ft 486 kts 112°
2026-04-28 18:49 -12.98295 -75.09768 34483 ft 486 kts 112°
2026-04-28 18:49 -13.00555 -75.04493 35012 ft 488 kts 112°
2026-04-28 18:49 -13.01923 -75.01301 35215 ft 490 kts 112°
2026-04-28 18:50 -13.03295 -74.98096 35451 ft 491 kts 112°
2026-04-28 18:50 -13.04668 -74.94897 35806 ft 490 kts 111°
2026-04-28 18:50 -13.06045 -74.91700 36078 ft 490 kts 112°
2026-04-28 18:50 -13.07423 -74.88503 36331 ft 492 kts 112°
2026-04-28 18:51 -13.08813 -74.85279 36455 ft 496 kts 112°
2026-04-28 18:51 -13.10206 -74.82032 36578 ft 500 kts 111°
2026-04-28 18:51 -13.11604 -74.78756 36702 ft 503 kts 111°
2026-04-28 18:51 -13.13008 -74.75461 36904 ft 505 kts 111°
2026-04-28 18:52 -13.14413 -74.72163 37145 ft 505 kts 111°
2026-04-28 18:52 -13.15823 -74.68855 37363 ft 505 kts 111°
2026-04-28 18:52 -13.18651 -74.62244 37410 ft 505 kts 111°
2026-04-28 18:53 -13.21476 -74.55644 37417 ft 505 kts 111°
2026-04-28 18:53 -13.24304 -74.49042 37396 ft 506 kts 111°
2026-04-28 18:54 -13.27093 -74.42507 37390 ft 492 kts 111°
2026-04-28 18:54 -13.29820 -74.36100 37383 ft 488 kts 111°
2026-04-28 18:55 -13.32058 -74.30835 37377 ft 476 kts 111°
2026-04-28 18:55 -13.33811 -74.26734 37373 ft 463 kts 111°
2026-04-28 18:55 -13.35100 -74.23713 37378 ft 460 kts 110°
2026-04-28 18:56 -13.37640 -74.17728 37412 ft 455 kts 111°
2026-04-28 18:56 -13.39724 -74.12809 37415 ft 444 kts 111°
2026-04-28 18:57 -13.42184 -74.07017 37391 ft 441 kts 111°
2026-04-28 18:57 -13.44624 -74.01264 37391 ft 440 kts 111°
2026-04-28 18:58 -13.46990 -73.95676 37397 ft 438 kts 110°
2026-04-28 18:58 -13.49431 -73.89912 37377 ft 436 kts 110°
2026-04-28 18:59 -13.51853 -73.84195 37379 ft 436 kts 110°
2026-04-28 18:59 -13.54272 -73.78475 37365 ft 437 kts 110°
2026-04-28 19:00 -13.56691 -73.72754 37363 ft 436 kts 110°
2026-04-28 19:00 -13.59108 -73.67038 37382 ft 436 kts 110°
2026-04-28 19:01 -13.61514 -73.61318 37436 ft 435 kts 111°
2026-04-28 19:01 -13.63914 -73.55619 37443 ft 434 kts 111°
2026-04-28 19:02 -13.66313 -73.49928 37467 ft 434 kts 110°
2026-04-28 19:02 -13.68594 -73.44196 37487 ft 431 kts 102°
2026-04-28 19:03 -13.69361 -73.38168 37484 ft 423 kts 83°
2026-04-28 19:03 -13.68323 -73.32308 37481 ft 413 kts 65°
2026-04-28 19:04 -13.65854 -73.27093 37471 ft 408 kts 57°
2026-04-28 19:04 -13.63173 -73.21943 37426 ft 408 kts 58°
2026-04-28 19:05 -13.60504 -73.16783 37393 ft 409 kts 58°
2026-04-28 19:05 -13.57825 -73.11626 37281 ft 409 kts 57°
2026-04-28 19:06 -13.55592 -73.07345 37281 ft 409 kts 58°
2026-04-28 19:06 -13.52452 -73.01324 37283 ft 408 kts 58°
2026-04-28 19:07 -13.49767 -72.96169 37276 ft 409 kts 58°
2026-04-28 19:07 -13.47274 -72.90911 37289 ft 413 kts 68°
2026-04-28 19:08 -13.46345 -72.85056 37274 ft 422 kts 87°
2026-04-28 19:08 -13.47306 -72.79078 37252 ft 428 kts 102°
2026-04-28 19:09 -13.48887 -72.73178 37244 ft 429 kts 102°
2026-04-28 19:09 -13.50448 -72.67266 37242 ft 428 kts 102°
2026-04-28 19:10 -13.51997 -72.61388 37233 ft 430 kts 102°
2026-04-28 19:10 -13.52778 -72.58421 36947 ft 432 kts 103°
2026-04-28 19:10 -13.53567 -72.55417 36302 ft 438 kts 103°
2026-04-28 19:11 -13.54367 -72.52379 35661 ft 443 kts 104°
2026-04-28 19:11 -13.55176 -72.49309 35060 ft 447 kts 104°
2026-04-28 19:11 -13.55990 -72.46216 34466 ft 450 kts 104°
2026-04-28 19:11 -13.56813 -72.43094 33834 ft 453 kts 104°
2026-04-28 19:12 -13.57640 -72.39962 33160 ft 455 kts 105°
2026-04-28 19:12 -13.58471 -72.36815 32496 ft 457 kts 105°
2026-04-28 19:12 -13.59306 -72.33661 31862 ft 457 kts 105°
2026-04-28 19:12 -13.60133 -72.30522 31224 ft 451 kts 105°
2026-04-28 19:13 -13.60944 -72.27437 30599 ft 444 kts 105°
2026-04-28 19:13 -13.61742 -72.24397 29920 ft 437 kts 105°
2026-04-28 19:13 -13.62524 -72.21406 29249 ft 430 kts 105°
2026-04-28 19:13 -13.63293 -72.18458 28639 ft 424 kts 105°
2026-04-28 19:14 -13.64052 -72.15547 27979 ft 419 kts 105°
2026-04-28 19:14 -13.64806 -72.12675 27334 ft 414 kts 106°
2026-04-28 19:14 -13.65554 -72.09834 26706 ft 409 kts 106°
2026-04-28 19:14 -13.66289 -72.07027 26082 ft 404 kts 106°
2026-04-28 19:15 -13.67016 -72.04256 25475 ft 399 kts 106°
2026-04-28 19:15 -13.67738 -72.01504 24886 ft 400 kts 107°
2026-04-28 19:15 -13.68639 -71.98787 24293 ft 403 kts 114°
2026-04-28 19:15 -13.69432 -71.97020 23894 ft 404 kts 118°
2026-04-28 19:16 -13.71299 -71.93694 22943 ft 407 kts 122°
2026-04-28 19:16 -13.72746 -71.91186 22246 ft 406 kts 122°
2026-04-28 19:16 -13.74167 -71.88720 21564 ft 396 kts 122°
2026-04-28 19:16 -13.75555 -71.86306 20897 ft 388 kts 122°
2026-04-28 19:17 -13.76842 -71.83907 20245 ft 379 kts 114°
2026-04-28 19:17 -13.77527 -71.81315 19538 ft 376 kts 97°
2026-04-28 19:17 -13.77485 -71.78650 18934 ft 368 kts 80°
2026-04-28 19:17 -13.76797 -71.76200 18816 ft 346 kts 66°
2026-04-28 19:18 -13.75655 -71.74108 18695 ft 327 kts 52°
2026-04-28 19:18 -13.74155 -71.72446 18544 ft 309 kts 39°
2026-04-28 19:18 -13.72411 -71.71227 18175 ft 298 kts 25°
2026-04-28 19:18 -13.70546 -71.70484 18047 ft 278 kts 13°
2026-04-28 19:19 -13.68693 -71.70159 17947 ft 264 kts
2026-04-28 19:19 -13.66893 -71.70195 17825 ft 254 kts 351°
2026-04-28 19:19 -13.65183 -71.70559 17480 ft 254 kts 342°
2026-04-28 19:19 -13.63506 -71.71266 16757 ft 263 kts 330°
2026-04-28 19:20 -13.61984 -71.72279 16212 ft 259 kts 321°
2026-04-28 19:20 -13.60697 -71.73551 15664 ft 256 kts 310°
2026-04-28 19:20 -13.59669 -71.75038 15046 ft 258 kts 300°
2026-04-28 19:20 -13.58902 -71.76740 14280 ft 268 kts 291°
2026-04-28 19:21 -13.58197 -71.78553 13648 ft 278 kts 293°
2026-04-28 19:21 -13.57457 -71.80428 12835 ft 286 kts 293°
2026-04-28 19:21 -13.56727 -71.82283 12497 ft 273 kts 292°
2026-04-28 19:21 -13.56094 -71.84068 12227 ft 259 kts 290°
2026-04-28 19:22 -13.55465 -71.85744 11955 ft 242 kts 297°
2026-04-28 19:22 -13.54943 -71.86716 11796 ft 227 kts 302°
2026-04-28 19:22 -13.54134 -71.88549 11390 ft 192 kts 284°
2026-04-28 19:22 -13.53984 -71.89818 11160 ft 168 kts 275°
2026-04-28 19:23 -13.53870 -71.90983 10955 ft 160 kts 277°
2026-04-28 19:23 -13.53755 -71.92106 10782 ft 156 kts 278°
2026-04-28 19:23 -13.53643 -71.93137 10756 ft 129 kts 276°
2026-04-28 19:23 -13.53574 -71.93861 10802 ft 56 kts 275°
2026-04-28 19:24 -13.53613 -71.94035 10809 ft 13 kts 251°
2026-04-28 19:24 -13.53634 -71.94092 10812 ft 3 kts 245°
2026-04-28 19:24 -13.53648 -71.94120 10812 ft 6 kts 244°
2026-04-28 19:24 -13.53669 -71.94168 10815 ft 7 kts 246°
2026-04-28 19:25 -13.53680 -71.94201 10816 ft 6 kts 252°
2026-04-28 19:25 -13.53697 -71.94247 10817 ft 7 kts 245°
2026-04-28 19:25 -13.53711 -71.94274 10816 ft 4 kts 241°
2026-04-28 19:25 -13.53719 -71.94298 10815 ft 4 kts 256°
2026-04-28 19:26 -13.53724 -71.94318 10817 ft 1 kts 258°
2026-04-28 19:26 -13.53724 -71.94319 10817 ft 0 kts 258°